S-NET C

Last updated on July 6, 2021, 3:39 p.m. UTC

1 43189U 18014K   21186.73735028  .00000302  00000-0  31192-4 0  9997
2 43189  97.6757  93.9543 0011455  27.0936 333.0882 14.97075342185580
UTC
Height (km)
Latitude
Longitude
Inclination
Orbital Period
UTC large
Height (km)
Speed (km/s)
/
Latitude / Longitude
Inclination (degrees)
Orbital Period (minutes)
Azimuth
Elevation
Range (km)
Doppler Factor
iOS Compass Heading
iOS Angle